CZ-4 DEB, 26209

Orbit data source: Space-Track

CZ-4 DEB, 26209 is space debris in SSO originally from a launch on Thu, 14 Oct 1999 UTC launched from the Taiyaun Space Center, China (TSC). Debris objects in space refer to the collection of defunct objects orbiting the Earth. Examples of debris include non-operational satellites, rocket bodies, and fragments generated from explosions, collisions, or faulty payload assembly.

Loading next visibility...
Identifier
26209, 1999-057CX
Orbit
SSO
Country
Flag of CNCN / PRC
Related business
Manufacturer
Unknown
Mission
Spacecraft
Bus & Motor
Unknown
Mass
Unknown
Launch date (UTC)
1999-10-14 (26 years ago)
Launch vehicle
Unknown
Launch site
Taiyaun Space Center, China (TSC)
Object type
Payload
Rocket body
Debris
Shape & HBR
Unknown shape, 0.1 m
Radar Cross Section
Small (<0.1 m²)

Expand to show TLE details & history
Last TLE update: 16 hours ago

TLE from 16 hours ago
0 CZ-4 DEB
1 26209U 99057CX  25350.27951713  .00001032  00000-0  19892-3 0  9997
2 26209  98.6263 146.0713 0027225 296.7319 183.5116 14.65622764370538
Epoch: 2025-12-16T06:42Z
TLE epoch observation values (Epoch: 2025-12-16T06:42:30.280Z)
Latitude
58.78058°
Longitude
154.69509°
Altitude
704.174 km
Speed
7.499 km/s
True Right ascension
22h 41m 56s
True Declination
58° 37' 36"
Sunlit
Object was in daylight at epoch
Visualization orbit readout
Latitude
Unknown
Longitude
Unknown
Altitude
Unknown
Speed
Unknown
Apparent Right ascension
Unknown
Apparent Declination
Unknown
Sunlit
N/A
Visualization observer readout
Local Sidereal Time
21:39:02
Azimuth
Unknown
Elevation
Unknown
Doppler factor
Unknown
Orbital elements
Apogee altitude
691.365 km
Perigee altitude
652.976 km
Semi-major axis
7,050.307 km
Eccentricity
0.00272
Inclination
98.6263°
RAAN
146.0713°
Arg. of periapsis
296.7319°
True anomaly
183.49256°
Mean anomaly
183.5116°
Eccentric anomaly
183.50207°
Mean motion
3.66633 °/min
Orbital period
98.19 mins
BSTAR
0.00019892
Loading maneuver chart data...
Computing Atmospheric mass density...
Loading historical data...
Loading historical data...
Loading historical data...
Loading historical data...
Loading historical data...
Loading historical data...
Loading historical data...

Documentation

Showing up to 5 results
|